sat.trackr.live / text

‹ back to catalog

STARLINK-34838

NORAD 65343 · 2025-189W

PAYLOAD ACTIVE UNKNOWN

§ Identity

Operator
Country
US
Launch date
2025-08-27
Launch site
AFETR
Launch vehicle
Mass (kg)
RCS (m²)

Purposes: comms

External: N2YO · Heavens-Above · Gunter

§ Orbital elements

Epoch: 2026-05-24T22:09:55.899360Z

Period
94.10 min
Inclination
53.1582°
Eccentricity
0.0001094
Mean motion
15.30207565 rev/d
Perigee alt
474.4 km
Apogee alt
475.9 km
Semi-major
6,853.3 km
B*
5.8449e-4
RAAN
212.9839°
Arg perigee
72.4211°
Mean anomaly
287.6909°
Rev number
4,278

§ Raw data

STARLINK-348381 65343U 25189W   26144.92356365  .00016995  00000+0  58449-3 0  99942 65343  53.1582 212.9839 0001094  72.4211 287.6909 15.30207565 42788

JSON: /api/v1/satellites/65343 · /tle

For live sub-satellite position, see the globe view (requires WebGL).

§ Visibility from observer

Set your observer location to see the next 7 days of passes ≥ 10°. The values pass through the URL so the page stays shareable.

No JS? Fill the form by hand. The geolocation button needs JavaScript.